• In Uzbekistan
  • List of Countries
  • For 7 days
  • Water Temperature
  • Satellite Maps
  • Weather Map
  • Weather Widgets
  • user-avatar
    Login

    Hourly Weather Brasília

    Today, 23 August, Wednesday

    Time Temperature Precipitation Wind Pressure Humidity
    00:00 +21°C° 0 mm 4 mps 669 mmHg 49%
    01:00 +21°C° 0 mm 4 mps 668 mmHg 52%
    02:00 +20°C° 0 mm 4 mps 668 mmHg 55%
    03:00 +20°C° 0 mm 5 mps 668 mmHg 58%
    04:00 +19°C° 0 mm 5 mps 668 mmHg 61%
    05:00 +19°C° 0 mm 5 mps 668 mmHg 64%
    06:00 +17°C° 0 mm 5 mps 668 mmHg 67%
    07:00 +19°C° 0 mm 5 mps 669 mmHg 64%
    08:00 +20°C° 0 mm 6 mps 669 mmHg 61%
    09:00 +20°C° 0 mm 6 mps 670 mmHg 59%
    10:00 +22°C° 0 mm 6 mps 670 mmHg 53%
    11:00 +24°C° 0 mm 6 mps 670 mmHg 47%
    12:00 +26°C° 0 mm 6 mps 670 mmHg 41%
    13:00 +27°C° 0 mm 5 mps 670 mmHg 39%
    14:00 +28°C° 0 mm 5 mps 669 mmHg 36%
    15:00 +29°C° 0 mm 5 mps 668 mmHg 33%
    16:00 +27°C° 0 mm 4 mps 668 mmHg 36%
    17:00 +26°C° 0 mm 4 mps 668 mmHg 38%
    18:00 +25°C° 0 mm 3 mps 667 mmHg 41%
    19:00 +25°C° 0 mm 3 mps 668 mmHg 43%
    20:00 +24°C° 0 mm 3 mps 668 mmHg 46%
    21:00 +22°C° 0 mm 3 mps 668 mmHg 49%
    22:00 +21°C° 0 mm 4 mps 668 mmHg 52%
    23:00 +21°C° 0 mm 4 mps 668 mmHg 56%

    Tomorrow, 24 August, Thursday

    Time Temperature Precipitation Wind Pressure Humidity
    00:00 +20°C° 0 mm 5 mps 668 mmHg 60%
    01:00 +19°C° 0 mm 5 mps 668 mmHg 63%
    02:00 +18°C° 0 mm 4 mps 668 mmHg 67%
    03:00 +17°C° 0 mm 4 mps 667 mmHg 70%
    04:00 +17°C° 0 mm 4 mps 667 mmHg 73%
    05:00 +17°C° 0 mm 4 mps 668 mmHg 76%
    06:00 +15°C° 0 mm 4 mps 668 mmHg 79%
    07:00 +16°C° 0 mm 5 mps 668 mmHg 74%
    08:00 +17°C° 0 mm 5 mps 669 mmHg 70%
    09:00 +19°C° 0 mm 5 mps 670 mmHg 66%
    10:00 +21°C° 0 mm 5 mps 670 mmHg 58%
    11:00 +23°C° 0 mm 5 mps 670 mmHg 50%
    12:00 +26°C° 0 mm 5 mps 670 mmHg 43%
    13:00 +27°C° 0 mm 5 mps 670 mmHg 39%
    14:00 +28°C° 0 mm 4 mps 669 mmHg 36%
    15:00 +29°C° 0 mm 4 mps 668 mmHg 33%
    16:00 +28°C° 0 mm 4 mps 668 mmHg 35%
    17:00 +26°C° 0 mm 3 mps 668 mmHg 38%
    18:00 +25°C° 0 mm 3 mps 667 mmHg 40%
    19:00 +24°C° 0 mm 3 mps 668 mmHg 43%
    20:00 +22°C° 0 mm 3 mps 668 mmHg 45%
    21:00 +21°C° 0 mm 3 mps 668 mmHg 48%
    22:00 +21°C° 0 mm 3 mps 668 mmHg 51%
    23:00 +20°C° 0 mm 4 mps 668 mmHg 54%

    Day after tomorrow, 25 August, Friday

    Time Temperature Precipitation Wind Pressure Humidity
    00:00 +20°C° 0 mm 4 mps 668 mmHg 56%
    01:00 +19°C° 0 mm 4 mps 668 mmHg 59%
    02:00 +19°C° 0 mm 4 mps 667 mmHg 61%
    03:00 +18°C° 0 mm 4 mps 667 mmHg 64%
    04:00 +17°C° 0 mm 4 mps 667 mmHg 67%
    05:00 +17°C° 0 mm 4 mps 667 mmHg 69%
    06:00 +15°C° 0 mm 4 mps 667 mmHg 72%
    07:00 +17°C° 0 mm 4 mps 668 mmHg 67%
    08:00 +19°C° 0 mm 5 mps 669 mmHg 62%
    09:00 +20°C° 0 mm 5 mps 670 mmHg 57%
    10:00 +22°C° 0 mm 5 mps 670 mmHg 50%
    11:00 +25°C° 0 mm 5 mps 670 mmHg 44%
    12:00 +26°C° 0 mm 5 mps 670 mmHg 37%
    13:00 +27°C° 0 mm 4 mps 669 mmHg 35%
    14:00 +28°C° 0 mm 4 mps 669 mmHg 33%
    15:00 +28°C° 0 mm 4 mps 668 mmHg 30%
    16:00 +27°C° 0 mm 3 mps 667 mmHg 32%
    17:00 +26°C° 0 mm 3 mps 667 mmHg 35%
    18:00 +25°C° 0 mm 2 mps 667 mmHg 37%
    19:00 +24°C° 0 mm 2 mps 667 mmHg 40%
    20:00 +23°C° 0 mm 2 mps 668 mmHg 42%
    21:00 +21°C° 0 mm 2 mps 668 mmHg 45%
    22:00 +20°C° 0 mm 2 mps 668 mmHg 46%
    23:00 +20°C° 0 mm 3 mps 668 mmHg 47%

    26 August, Saturday

    Time Temperature Precipitation Wind Pressure Humidity
    00:00 +20°C° 0 mm 3 mps 668 mmHg 48%
    01:00 +19°C° 0 mm 3 mps 668 mmHg 50%
    02:00 +19°C° 0 mm 3 mps 667 mmHg 53%
    03:00 +18°C° 0 mm 3 mps 667 mmHg 55%
    04:00 +17°C° 0 mm 3 mps 667 mmHg 59%
    05:00 +17°C° 0 mm 3 mps 667 mmHg 63%
    06:00 +16°C° 0 mm 3 mps 667 mmHg 67%
    07:00 +18°C° 0 mm 4 mps 668 mmHg 62%
    08:00 +19°C° 0 mm 4 mps 669 mmHg 58%
    09:00 +20°C° 0 mm 5 mps 670 mmHg 53%
    10:00 +23°C° 0 mm 4 mps 670 mmHg 46%
    11:00 +26°C° 0 mm 4 mps 670 mmHg 39%
    12:00 +28°C° 0 mm 3 mps 670 mmHg 32%
    13:00 +29°C° 0 mm 3 mps 669 mmHg 29%
    14:00 +29°C° 0 mm 3 mps 668 mmHg 26%
    15:00 +30°C° 0 mm 2 mps 668 mmHg 23%
    16:00 +29°C° 0 mm 2 mps 667 mmHg 25%
    17:00 +27°C° 0 mm 2 mps 667 mmHg 27%
    18:00 +26°C° 0 mm 2 mps 667 mmHg 29%
    19:00 +25°C° 0 mm 2 mps 667 mmHg 31%
    20:00 +24°C° 0 mm 3 mps 667 mmHg 34%
    21:00 +21°C° 0 mm 3 mps 668 mmHg 36%
    22:00 +21°C° 0 mm 3 mps 668 mmHg 37%
    23:00 +20°C° 0 mm 3 mps 667 mmHg 38%

    27 August, Sunday

    Time Temperature Precipitation Wind Pressure Humidity
    00:00 +20°C° 0 mm 3 mps 667 mmHg 38%
    01:00 +19°C° 0 mm 3 mps 667 mmHg 39%
    02:00 +19°C° 0 mm 3 mps 666 mmHg 39%
    03:00 +18°C° 0 mm 3 mps 666 mmHg 39%
    04:00 +18°C° 0 mm 3 mps 666 mmHg 43%
    05:00 +17°C° 0 mm 3 mps 666 mmHg 46%
    06:00 +16°C° 0 mm 3 mps 666 mmHg 50%
    07:00 +18°C° 0 mm 4 mps 667 mmHg 49%
    08:00 +20°C° 0 mm 4 mps 668 mmHg 48%
    09:00 +21°C° 0 mm 4 mps 669 mmHg 47%
    10:00 +23°C° 0 mm 4 mps 669 mmHg 40%
    11:00 +26°C° 0 mm 3 mps 669 mmHg 34%
    12:00 +29°C° 0 mm 3 mps 669 mmHg 27%
    13:00 +29°C° 0 mm 3 mps 668 mmHg 24%
    14:00 +30°C° 0 mm 2 mps 668 mmHg 21%
    15:00 +31°C° 0 mm 2 mps 667 mmHg 18%
    16:00 +29°C° 0 mm 2 mps 667 mmHg 20%
    17:00 +28°C° 0 mm 2 mps 667 mmHg 22%
    18:00 +27°C° 0 mm 2 mps 666 mmHg 24%
    19:00 +25°C° 0 mm 2 mps 667 mmHg 27%
    20:00 +24°C° 0 mm 3 mps 667 mmHg 30%
    21:00 +22°C° 0 mm 3 mps 667 mmHg 33%
    22:00 +21°C° 0 mm 3 mps 667 mmHg 35%
    23:00 +21°C° 0 mm 3 mps 667 mmHg 37%

    28 August, Monday

    Time Temperature Precipitation Wind Pressure Humidity
    00:00 +20°C° 0 mm 3 mps 666 mmHg 39%
    01:00 +20°C° 0 mm 3 mps 666 mmHg 40%
    02:00 +19°C° 0 mm 3 mps 666 mmHg 40%
    03:00 +19°C° 0 mm 3 mps 665 mmHg 41%
    04:00 +18°C° 0 mm 3 mps 666 mmHg 42%
    05:00 +18°C° 0 mm 3 mps 666 mmHg 42%
    06:00 +17°C° 0 mm 3 mps 666 mmHg 42%
    07:00 +19°C° 0 mm 3 mps 667 mmHg 40%
    08:00 +21°C° 0 mm 4 mps 668 mmHg 38%
    09:00 +23°C° 0 mm 4 mps 669 mmHg 36%
    10:00 +26°C° 0 mm 4 mps 669 mmHg 31%
    11:00 +28°C° 0 mm 3 mps 669 mmHg 27%
    12:00 +30°C° 0 mm 3 mps 669 mmHg 23%
    13:00 +30°C° 0 mm 2 mps 668 mmHg 21%
    14:00 +31°C° 0 mm 2 mps 668 mmHg 19%
    15:00 +32°C° 0 mm 2 mps 667 mmHg 17%
    16:00 +30°C° 0 mm 2 mps 667 mmHg 19%
    17:00 +29°C° 0 mm 2 mps 667 mmHg 21%
    18:00 +27°C° 0 mm 2 mps 667 mmHg 23%
    19:00 +26°C° 0 mm 2 mps 667 mmHg 25%
    20:00 +25°C° 0 mm 3 mps 667 mmHg 28%
    21:00 +24°C° 0 mm 3 mps 667 mmHg 30%
    22:00 +22°C° 0 mm 3 mps 667 mmHg 31%
    23:00 +21°C° 0 mm 3 mps 667 mmHg 33%
    Show more